Regional Weather Roundup
Issued by NWS

Home | Current Version | Previous Version | Graphics & Text | Print | Product List | Glossary On
Versions: 1 2 3 4 5 6 7 8 9 10 11 12 13 14 15 16 17 18 19 20 21 22 23 24 25 26 27
000
ASUS45 KBOU 220110
RWRCO

WEATHER ROUNDUP FOR COLORADO
NATIONAL WEATHER SERVICE DENVER/BOULDER CO
700 PM MDT MON MAY 21 2018

NOTE: "FAIR" INDICATES FEW OR NO CLOUDS BELOW 12000 FEET WITH NO
SIGNIFICANT WEATHER AND/OR OBSTRUCTIONS TO VISIBILITY.

COZ001>005-013-030-031-220200-
...NORTHWEST COLORADO...

CITY           SKY/WX    TMP DP  RH WIND       PRES   REMARKS
CRAIG          FAIR      70  45  40 CALM      29.93F
HAYDEN         FAIR      71  34  25 NE5       29.98F
MEEKER         FAIR      75  23  14 NE3       29.93F
RANGELY        FAIR      76  24  14 W5        29.86S
RABBIT EARS PA FAIR      52  25  35 NW8       30.24F
STEAMBOAT SPGS FAIR      70  29  21 NW3       29.99F
WALDEN         FAIR      63  21  20 W7        30.10S
$$

COZ006>008-011-220200-
...WEST CENTRAL VALLEYS...

CITY           SKY/WX    TMP DP  RH WIND       PRES   REMARKS
GRAND JUNCTION FAIR      81  23  11 VRB3      29.80F
MONTROSE       FAIR      73  28  18 S20       29.90R
EAGLE          FAIR      73  23  15 SE7       29.96F
RIFLE          FAIR      78  21  12 W6        29.87S
DELTA          FAIR      83  18   9 SE5       29.84S
NUCLA          FAIR      73  30  20 S24G32    29.94S
$$

COZ017>023-064>068-220200-
...SOUTHWEST COLORADO...

CITY           SKY/WX    TMP DP  RH WIND       PRES   REMARKS
DURANGO        FAIR      60  42  51 NE18G24   30.09F
CORTEZ         CLOUDY    68  36  30 NE17      29.99R
PAGOSA SPRINGS FAIR      55  38  52 N5        30.19F
TELLURIDE      CLOUDY    55  31  40 E5G16     30.20S
WOLF CREEK PAS PTSUNNY   34  30  86 CALM      30.44S
$$

COZ009-010-012-014-032>034-037-058>063-220200-
...CENTRAL COLORADO...

CITY           SKY/WX    TMP DP  RH WIND       PRES   REMARKS
ASPEN          FAIR      66  28  24 SE18G26   30.04R
BUENA VISTA    FAIR      57  35  44 SE10      30.17S
COPPER MTN     CLOUDY    46  27  46 N3        30.36R
BERTHOUD PASS  FAIR      36  27  69 S18G31    30.39R
COTTONWOOD PAS FAIR      55  36  47 CALM      30.26F
GUNNISON       CLOUDY    58  37  45 E21G26    30.13R
GRANBY         FAIR      63  29  27 SE10      30.09S
KREMMLING      FAIR      73  12   9 CALM      30.02F
LEADVILLE      FAIR      49  33  54 S18       30.22S
MONARCH PASS   CLOUDY    37  32  81 MISG      30.47F
SALIDA         PTSUNNY   59  38  46 SE9G18    30.22F
SUNLIGHT       CLOUDY    50  21  32 CALM      30.27S
WILKERSON PASS FAIR      43  28  56 SW10G17   30.36F
$$

COZ069>075-220200-
...SAN LUIS VALLEY/SANGRE DE CRISTO MOUNTAINS...

CITY           SKY/WX    TMP DP  RH WIND       PRES   REMARKS
ALAMOSA        CLOUDY    48  44  86 CALM      30.25R
DEL NORTE      FAIR      46  42  84 NW3       30.24F
LA VETA PASS   DRIZZLE   39  36  87 SW21G38   30.43R
SAGUACHE       NOT AVBL
$$

COZ035-036-038>040-220200-
...NORTHERN COLORADO FRONT RANGE...

CITY           SKY/WX    TMP DP  RH WIND       PRES   REMARKS
DENVER INTL AP PTSUNNY   69  40  34 SE25G37   29.97R
AURORA         MOSUNNY   69  39  34 S20       30.00R
FRONT RANGE AP PTSUNNY   72  39  30 SE26G35   29.99R
ERIE MUNI ARPT FAIR      74  35  23 SW5       29.99R
BOULDER MUN AP FAIR      70  50  49 NW5       29.95R
CENTENNIAL     PTSUNNY   68  38  33 S12       30.01R
BROOMFIELD     PTSUNNY   73  36  25 NE6       29.98R
FORT COLLINS   FAIR      73  49  42 E9        29.96R
LONGMONT       FAIR      72  52  49 N7        29.96R
$$

COZ041-046-047-076>085-087-088-220200-
...PIKES PEAK/PALMER DIVIDE AND SOUTHERN FOOTHILLS...

CITY           SKY/WX    TMP DP  RH WIND       PRES   REMARKS
COLO. SPRINGS  PTSUNNY   68  38  33 E7        30.06R
A. F. ACADEMY  FAIR      64  37  37 NE8       30.05F
SCHRIEVER AFB  NOT AVBL
CHEYENNE MTN   PTSUNNY   64  34  32 SE6       30.04R
ELLICOTT         N/A    N/A N/A N/A S9        30.05R
FALCON         FAIR      64  34  33 CALM      30.10S
FORT CARSON    FAIR      70  35  27 NE9       30.00S
LIMON          FAIR      68  39  34 NW16G23   30.01R
MONUMENT HILL  CLOUDY    59  39  47 S7        30.11R
CANON CITY     FAIR      68  41  37 W12G20    29.99F
WALSENBURG     FAIR      61  45  55 SW15G21   30.09R
TRINIDAD       FAIR      57  50  77 W16       30.10R
$$

COZ042>045-048>051-090-091-220200-
...NORTHEAST COLORADO...

CITY           SKY/WX    TMP DP  RH WIND       PRES   REMARKS
GREELEY ARPT   NOT AVBL
AKRON          FAIR      75  55  49 E8        29.93S
BURLINGTON     FAIR      76  43  30 S18G29    29.93R
WRAY           FAIR      72  59  64 NE6       29.90S
YUMA           FAIR      73  54  49 E12       29.91S
STERLING       FAIR      77  55  47 E7        29.91R
HOLYOKE        FAIR      81  52  36 SE7       29.92R
FORT MORGAN    FAIR      75  50  40 NE8       29.93S
$$

COZ086-089-092>099-220200-
...SOUTHEAST COLORADO...

CITY           SKY/WX    TMP DP  RH WIND       PRES   REMARKS
PUEBLO         FAIR      73  40  30 SW24G40   29.96R
LA JUNTA       FAIR      76  38  25 SW22G33   29.97R
LAMAR          FAIR      74  52  46 MISG      29.91S
SPRINGFIELD      N/A     74  51  44 S16       29.98F
$$




USA.gov is the U.S. government's official web portal to all federal, state and local government web resources and services.